This is the latest recevied weather packets stored in our database for station/object N3WMC. If no packets are shown the sender has not sent any weather packets the latest 10 day(s).
| Time | Temp. | Humidity | Pressure | Rain* | Wind** | Luminosity | Snow |
|---|---|---|---|---|---|---|---|
| 1777816145 | 8.33° C | 57% | 1018.3 hPa | 0 mm | - | 143 W/m² | - |
| 1777815843 | 8.89° C | 59% | 1018.2 hPa | 0 mm | - | 78 W/m² | - |
| 1777815540 | 7.78° C | 64% | 1018.4 hPa | 0 mm | - | 79 W/m² | - |
| 1777815238 | 7.78° C | 61% | 1018.6 hPa | 0 mm | - | 48 W/m² | - |
| 1777814933 | 7.78° C | 64% | 1018.5 hPa | 0 mm | - | 76 W/m² | - |
| 1777814630 | 7.78° C | 64% | 1018.4 hPa | 0 mm | - | 245 W/m² | - |
| 1777814327 | 7.22° C | 65% | 1018.5 hPa | 0 mm | - | 258 W/m² | - |
| 1777814024 | 6.67° C | 69% | 1018.5 hPa | 0 mm | - | 257 W/m² | - |
| 1777813721 | 6.67° C | 68% | 1018.6 hPa | 0 mm | - | 58 W/m² | - |
| 1777813419 | 6.11° C | 72% | 1018.5 hPa | 0 mm | - | 176 W/m² | - |
| 1777813115 | 5.56° C | 73% | 1018.5 hPa | 0 mm | - | 48 W/m² | - |
| 1777812814 | 5.56° C | 74% | 1018.5 hPa | 0 mm | - | 43 W/m² | - |
| 1777812510 | 5° C | 76% | 1018.5 hPa | 0 mm | - | 83 W/m² | - |
| 1777812208 | 5° C | 76% | 1018.5 hPa | 0 mm | - | 41 W/m² | - |
| 1777811900 | 5° C | 79% | 1018.4 hPa | 0 mm | - | 40 W/m² | - |
| 1777811599 | 4.44° C | 79% | 1018.4 hPa | 0 mm | - | 48 W/m² | - |
| 1777811294 | 4.44° C | 80% | 1018.4 hPa | 0 mm | - | 40 W/m² | - |
| 1777810992 | 3.89° C | 88% | 1018.1 hPa | 0 mm | - | 196 W/m² | - |
| 1777810689 | 2.78° C | 94% | 1018.2 hPa | 0 mm | - | 196 W/m² | - |
| 1777810385 | 2.78° C | 97% | 1018.3 hPa | 0 mm | - | 184 W/m² | - |
| 1777810081 | 3.33° C | 98% | 1018.3 hPa | 0 mm | - | 157 W/m² | - |
| 1777809779 | 2.22° C | 98% | 1018.2 hPa | 0 mm | - | 145 W/m² | - |
| 1777809476 | 1.67° C | 98% | 1018.3 hPa | 0 mm | - | 83 W/m² | - |
| 1777809173 | 1.11° C | 98% | 1018.2 hPa | 0 mm | - | 49 W/m² | - |
| 1777808871 | 0.56° C | 98% | 1018.1 hPa | 0 mm | - | 41 W/m² | - |
* Rain latest hour (hover to see other rain measurements)
** Current wind speed in m/s (hover to see current wind gust speed)